[TLELIST] Archives

 

[TLELIST] Current TLEs

March 5th 2024 PDT

HST 1 20580U 90037B 24064.90858138 .00005782 00000-0 28181-3 0 9997 2 20580 28.4693 322.9506 0002765 342.9242 17.1257 15.16178820661186 ISS (ZARYA) 1 25544U 98067A 24065.37262438 .00015498 00000-0 28247-3 0 9995 2 25544 51.6404 109.8905 0005838 327.2444 121.5193 15.49636020442451 CXO 1 25867U 99040B 24064.73870897 .00001136 00000-0 00000-0 0 9996 2 25867 39.0237 164.5043 8969530 288.5598 0.5855 0.37810200 14179 ...Continue Reading

[TLELIST] Current TLEs

March 5th 2024 PDT

HST 1 20580U 90037B 24064.90858138 .00005782 00000-0 28181-3 0 9997 2 20580 28.4693 322.9506 0002765 342.9242 17.1257 15.16178820661186 ISS (ZARYA) 1 25544U 98067A 24065.37262438 .00015498 00000-0 28247-3 0 9995 2 25544 51.6404 109.8905 0005838 327.2444 121.5193 15.49636020442451 CXO 1 25867U 99040B 24064.73870897 .00001136 00000-0 00000-0 0 9996 2 25867 39.0237 164.5043 8969530 288.5598 0.5855 0.37810200 14179 ...Continue Reading

[TLELIST] Current TLEs

March 5th 2024 PDT

HST 1 20580U 90037B 24064.90858138 .00005782 00000-0 28181-3 0 9997 2 20580 28.4693 322.9506 0002765 342.9242 17.1257 15.16178820661186 ISS (ZARYA) 1 25544U 98067A 24065.37262438 .00015498 00000-0 28247-3 0 9995 2 25544 51.6404 109.8905 0005838 327.2444 121.5193 15.49636020442451 CXO 1 25867U 99040B 24064.73870897 .00001136 00000-0 00000-0 0 9996 2 25867 39.0237 164.5043 8969530 288.5598 0.5855 0.37810200 14179 ...Continue Reading

[TLELIST] Current TLEs

March 4th 2024 PDT

HST 1 20580U 90037B 24063.85539275 .00006190 00000-0 30251-3 0 9993 2 20580 28.4695 329.9894 0002708 331.6887 28.3557 15.16165504661027 ISS (ZARYA) 1 25544U 98067A 24064.40616281 .00015261 00000-0 27860-3 0 9995 2 25544 51.6400 114.6786 0005770 323.4937 130.1664 15.49603842442307 CXO 1 25867U 99040B 24064.73870897 .00001136 00000-0 00000-0 0 9996 2 25867 39.0237 164.5043 8969530 288.5598 0.5855 0.37810200 14179 ...Continue Reading

[TLELIST] Current TLEs

March 3rd 2024 PDT

HST 1 20580U 90037B 24063.13131939 .00005808 00000-0 28332-3 0 9991 2 20580 28.4696 334.8289 0002688 323.4287 36.6122 15.16155999661174 ISS (ZARYA) 1 25544U 98067A 24063.44405839 .00014608 00000-0 26733-3 0 9995 2 25544 51.6407 119.4406 0005836 319.4962 163.4985 15.49571966442151 CXO 1 25867U 99040B 24064.73870897 .00001136 00000-0 00000-0 0 9996 2 25867 39.0237 164.5043 8969530 288.5598 0.5855 0.37810200 14179 ...Continue Reading

[TLELIST] Current TLEs

March 3rd 2024 PDT

HST 1 20580U 90037B 24063.13131939 .00005808 00000-0 28332-3 0 9991 2 20580 28.4696 334.8289 0002688 323.4287 36.6122 15.16155999661174 ISS (ZARYA) 1 25544U 98067A 24063.44405839 .00014608 00000-0 26733-3 0 9995 2 25544 51.6407 119.4406 0005836 319.4962 163.4985 15.49571966442151 CXO 1 25867U 99040B 24064.73870897 .00001136 00000-0 00000-0 0 9996 2 25867 39.0237 164.5043 8969530 288.5598 0.5855 0.37810200 14179 ...Continue Reading

[TLELIST] Current TLEs

March 2nd 2024 PDT

HST 1 20580U 90037B 24062.07811419 .00005557 00000-0 27077-3 0 9997 2 20580 28.4697 341.8682 0002660 311.0987 48.9375 15.16144293661014 ISS (ZARYA) 1 25544U 98067A 24062.41232376 .00012465 00000-0 22965-3 0 9997 2 25544 51.6401 124.5500 0005854 316.6006 167.1563 15.49537354441992 CXO 1 25867U 99040B 24064.73832357 .00001136 00000-0 00000+0 0 9994 2 25867 39.0234 164.5127 8969511 288.5515 0.5337 0.37811777 25321 ...Continue Reading

[TLELIST] Current TLEs

March 1st 2024 PDT

HST 1 20580U 90037B 24060.89324853 .00005360 00000-0 26090-3 0 9992 2 20580 28.4697 349.7865 0002640 297.1562 62.8760 15.16131804660572 ISS (ZARYA) 1 25544U 98067A 24061.30843755 .00015035 00000-0 27549-3 0 9992 2 25544 51.6412 130.0162 0005881 311.0214 130.8791 15.49509182441820 CXO 1 25867U 99040B 24062.09558345 .00001067 00000-0 00000-0 0 9997 2 25867 38.9977 164.7184 8971433 288.4060 0.6624 0.37813309 14161 ...Continue Reading

[TLELIST] Current TLEs

March 1st 2024 PDT

HST 1 20580U 90037B 24060.89324853 .00005360 00000-0 26090-3 0 9992 2 20580 28.4697 349.7865 0002640 297.1562 62.8760 15.16131804660572 ISS (ZARYA) 1 25544U 98067A 24061.30843755 .00015035 00000-0 27549-3 0 9992 2 25544 51.6412 130.0162 0005881 311.0214 130.8791 15.49509182441820 CXO 1 25867U 99040B 24062.09558345 .00001067 00000-0 00000-0 0 9997 2 25867 38.9977 164.7184 8971433 288.4060 0.6624 0.37813309 14161 ...Continue Reading

[TLELIST] Current TLEs

February 29th 2024 PDT

HST 1 20580U 90037B 24059.90585326 .00005594 00000-0 27280-3 0 9997 2 20580 28.4698 356.3848 0002638 285.2265 74.8035 15.16121993660423 ISS (ZARYA) 1 25544U 98067A 24060.40954844 .00016153 00000-0 29560-3 0 9991 2 25544 51.6412 134.4665 0005811 307.0846 157.3392 15.49483648441688 CXO 1 25867U 99040B 24062.09558345 .00001067 00000-0 00000-0 0 9997 2 25867 38.9977 164.7184 8971433 288.4060 0.6624 0.37813309 14161 ...Continue Reading
  • This mailing list is a public mailing list - anyone may join or leave, at any time.
  • This mailing list is announce-only.

International Space Station (ISS) / Hubble Space Telescope (HST) / Chandra X-Ray Observatory Orbital Data via EMAIL

Privacy Policy:

Private list